STARLINK-1484, 45756

Orbit data source: Space-Track

STARLINK-1484, 45756 is a payload satellite owned by SpaceX/Seattle (US) in LEO that was launched on Sat, 13 Jun 2020 UTC via an FALCON 9 launch vehicle from the Air Force Eastern Test Range (AFETR). Payloads include a variety of satellites, spacecraft, and rockets equipped with specific instruments for various scientific and technological missions. These include communications satellites like Starlink; space stations such as the ISS; scientific satellites like the Hubble; Earth observation satellites from companies like Planet Labs, Umbra, and HawkEye 360; GPS; miniature CubeSats for education and research; and military/defense satellites.

Loading next visibility...
STARLINK-1484 details
Identifier
45756, 2020-038AC
Orbit
LEO
Last TLE update1 day ago
Origin
Flag of USSpaceX/Seattle (US)
ManufacturerSpaceX/Seattle
MissionPartially operational Commercial Communications
Bus & MotorSTARLINK, Unknown motor
Mass260 kg wet, ~248 kg dry
Launch date (UTC)
2020-06-13 (5 years ago)
Launch vehicle
FALCON 9
Launch site
Air Force Eastern Test Range (AFETR)
Object type
Payload
Rocket body
Debris
Shape & HBRBox + 1 Pan, 8.86 m
Radar Cross Section13.562 m², Large (>1 m²)

Expand to show TLE details & history

TLE from 1 day ago
0 STARLINK-1484
1 45756U 20038AC  24360.46573644  .00060425  00000-0  24459-2 0  9997
2 45756  53.0283   8.2504 0000269 304.0944  56.0027 15.24139350250550
Epoch: 2024-12-25T11:10Z
Definitive object data (Epoch: 2024-12-25T11:10:39.628Z)
Latitude-0°
Longitude106.12619°
Altitude494.151 km
Speed7.619 km/s
True Right ascension00h 33m 00s
True Declination0° 00' 00"
Sunlit
Object was in daylight at TLE epoch
Visualization TLE readout
Latitude17.97104°
Longitude-92.60154°
Altitude493.475 km
Speed7.621 km/s
Apparent Right ascension12h 37m 44s
Apparent Declination-47° 44' 14"
Sunlit
Object is in daylight
Visualization observer readout
Local Sidereal Time10:49:35
Azimuth162.197° S
Elevation-0.884°
Doppler factor1
Orbital elements
Apogee altitude493.833 km
Perigee altitude493.463 km
Semi-major axis6,871.785 km
Eccentricity0.0000269
Inclination53.0283°
RAAN8.2504°
Arg. of periapsis304.0944°
True anomaly56.00526°
Mean anomaly56.0027°
Eccentric anomaly56.00398°
Mean motion3.81012 °/min
BSTAR0.0024459
Orbital period94.49 mins
Loading maneuver chart data...

STARLINK-1484 Visibility forecast

Observer location: undefined°, undefined

Span
Click to sort rows by Start time (UTC) header in descending order
Start Az.
Max El. time (UTC)
Max El. Az.
Max El.
End time (UTC)
End Az.
6 mins2024-12-27 02:41:14.155Z204.119° SW2024-12-27 02:44:14.155Z122.662° SE35.528°2024-12-27 02:47:14.155Z62.877° ENE
5 mins2024-12-27 04:20:14.155Z283.092° WNW2024-12-27 04:22:14.155Z325.753° NNW24.312°2024-12-27 04:25:14.155Z27.649° NE
5 mins2024-12-27 09:18:14.155Z329.043° NNW2024-12-27 09:20:14.155Z18.411° NNE34.463°2024-12-27 09:23:14.155Z102.39° ESE
4 mins2024-12-27 10:57:14.155Z262.219° W2024-12-27 10:58:14.155Z240.586° WSW20.861°2024-12-27 11:01:14.155Z181.373° SSW
|